User: anonymous   Login
Location: Unspecified
(0.0000°N, 0.0000°E)
Time: 21:45:53
(UTC+00:00)
Language:

Gonets-D1 - Orbit

View from above orbital plane
View from above orbital plane
View from above satellite
View from above satellite

Ground track
Ground track

The orbit data is extracted from the following two-line orbital elements,

1 24726U 97006B   17117.80942907 +.00000017 +00000-0 +33396-4 0  9995
2 24726 082.6025 223.1704 0006430 093.3403 266.8423 12.61335295929817
Epoch (UTC): 27 April 2017 19:25:34
Eccentricity: 0.0006430
inclination: 82.6025°
perigee height: 1412 km
apogee height: 1422 km
right ascension of ascending node: 223.1704°
argument of perigee: 93.3403°
revolutions per day: 12.61335295
mean anomaly at epoch: 266.8423°
orbit number at epoch: 92981

The dashed part of the orbit path shows where the satellite is in the earth's shadow,  

DLR